Location: Julian California
(33.0790°N, 116.6010°W)
Time: 22:20:37
(UTC-07:00)

OAO 3 Copernicus - Pass Details

Date: 14 June 2018
Orbit: 695 x 705 km, 35.0° (Epoch: 20 August)

Event Time Altitude Azimuth Distance (km) Brightness Sun altitude
Rises 22:17:51 0° 265° (W) 3,066 8.1 -23.4°
Reaches altitude 10° 22:20:16 10° 268° (W) 2,147 7.2 -23.7°
Maximum altitude 22:25:18 75° 353° (N) 720 4.4 -24.3°
Enters shadow 22:26:45 46° 66° (ENE) 926 4.8 -24.5°
